Skip to main content Skip to accessibility
This website is not compatible with your web browser. You should install a newer browser. If you live in Jersey and need help upgrading call the States of Jersey web team on 440099.
Homegov.je

Information and public services for the Island of Jersey

L'înformâtion et les sèrvices publyis pouor I'Île dé Jèrri

  • Choose the service you want to log in to:

  • gov.je

    Update your notification preferences

  • one.gov.je

    Access government services

  • CAESAR

    Clear goods through customs or claim relief

  • Talentlink

    View or update your States of Jersey job application

CI Airfield TAFs

JERSEY - EGJJ

EGJJ 092001Z 0921/1006 06006KT CAVOK TEMPO 0922/1006 8000 PROB30 TEMPO 1003/1006 4000 BR=

GUERNSEY - EGJB

EGJB 092001Z 0921/1006 07007KT 7000 NSC TEMPO 0921/1000 CAVOK PROB40 TEMPO 1000/1006 3000 BR=

ALDERNEY - EGJA

EGJA 091810Z 0918/1000 CNL=

​Apologies to the disruption to normal service. Commercial Aviation Services are available from the Jersey Met Forecaster 01534 448765.

Back to top
rating button